Tracking 29799 objects as of 11-Oct-2024
HD Live streaming from Space Station
objects crossing your sky now

STARLINK-30129

Track STARLINK-30129 now!
10-day predictions
STARLINK-30129 is classified as:


NORAD ID: 56689
Int'l Code: 2023-067B
Perigee: 565.7 km
Apogee: 566.6 km
Inclination: 43.0 °
Period: 95.8 minutes
Semi major axis: 6937 km
RCS: Unknown
Launch date: May 19, 2023
Source: United States (US)
Launch site: AIR FORCE EASTERN TEST RANGE (AFETR)
Your satellite tracking list
Your tracking list is empty




NASA's NSSDC Master Catalog

Two Line Element Set (TLE):
1 56689U 23067B   24285.14133343  .00001162  00000-0  10097-3 0  9995
2 56689  43.0006 190.7720 0000674 305.2818  54.7962 15.02565850 77407
Source of the keplerian elements: AFSPC